[[{"header":{"parameterUnit":"m.s-1","parameterCategory":1,"la1":30.2991,"la2":30.254,"lo1":-89.0895,"lo2":-89.0444,"dy":0.0017,"dx":0.0017,"nx":28,"ny":28,"refTime":"2024-05-26T09:00:00:Z","depth":0,"parameterNumber":2,"parameterNumberName":"U-component_of_WINDS"},"data":[0,0,0,0,0,0,0,0,0,0,0,0,0,0,0,0,0,0,0,0,0,0,0,0,0,0,0,0,0,0,0,0,0,0,0,0,0,0,0,0,0,0,0,0,0,0,0,0,0,0,0,0,0,0,0,0,0,0,2.9219,2.9221,0,2.9367,2.9368,2.937,2.9383,2.9381,2.938,2.9378,2.9527,2.9533,2.9538,0,0,0,0,0,0,0,0,0,0,0,0,0,2.8946,2.8951,2.9219,2.9221,2.9223,2.9366,2.9368,2.937,2.9383,2.9381,2.9379,2.9377,2.9525,2.9532,2.9538,0,0,0,0,0,0,0,0,0,0,0,0,0,2.9076,2.8953,2.9219,2.9246,2.925,2.9366,2.9368,2.9371,2.9383,2.9381,2.9379,2.9377,2.9523,2.9531,2.9539,2.9637,0,0,2.9564,2.9568,0,0,0,0,0,0,0,0,2.9069,2.9086,2.9241,2.9245,2.9249,2.9354,2.9327,2.946,2.9384,2.9333,2.9378,2.9375,2.9471,2.9484,2.9516,2.9644,2.965,2.9565,2.957,2.9573,2.9576,0,0,0,0,0,0,0,2.906,2.908,2.9277,2.9243,2.9248,2.9251,2.9267,2.9352,2.9413,2.9337,2.9338,2.9356,2.9473,2.9509,2.952,2.9652,2.9565,2.9572,2.9577,2.958,2.9866,2.9868,0,0,0,0,0,0,2.9046,2.9072,2.9273,2.9282,2.9152,2.9258,2.9275,2.9323,2.9413,2.9424,2.9358,2.9356,2.9496,2.951,2.9525,2.9644,2.9573,2.9581,2.9586,2.9863,2.9866,2.9869,0,0,0,0,0,0,2.904,2.9064,2.9267,2.9178,2.9204,2.9265,2.9318,2.9327,2.9362,2.9428,2.9439,2.9383,2.9494,2.9514,2.9609,2.965,2.9585,2.9592,2.986,2.9864,2.9868,2.9883,0,0,0,0,0,0,2.9032,2.9062,2.91,2.9178,2.9208,2.9349,2.9321,2.9331,2.9376,2.9375,2.9454,2.9465,2.9494,2.9597,2.9617,2.966,2.9598,2.9856,2.9862,2.9866,2.9879,2.9887,2.9894,0,0,0,0,0,2.9022,2.9098,2.9102,2.9126,2.9258,2.9351,2.9368,2.94,2.938,2.9418,2.946,2.9463,2.9642,2.9606,2.9629,2.9675,2.9854,2.986,2.9866,2.9876,2.9886,2.9894,0,0,0,0,0,0,2.9022,2.9109,2.9114,2.9217,2.9277,2.9353,2.9402,2.941,2.9476,2.9472,2.9509,2.9527,2.962,2.9657,2.9616,2.9773,2.9746,2.9757,2.9745,2.9755,2.9763,2.9751,2.9605,0,0,0,0,0,2.9034,2.9104,2.9175,2.926,2.9289,2.9341,2.9383,2.9403,2.9465,2.949,2.9539,2.96,2.9669,2.9715,2.9783,2.9885,2.9902,2.9928,2.9935,2.9941,2.995,3.0005,3.0017,2.9889,2.9889,2.9889,0,0,2.906,2.9116,2.9157,2.9261,2.9309,2.9379,2.9362,2.9437,2.9489,2.9501,2.9594,2.9632,2.9702,2.98,2.9846,2.9834,2.9989,2.9949,2.9953,2.9959,3.0013,3.0025,3.0036,2.9893,2.9892,2.9892,0,0,2.9142,2.9192,2.9267,2.9316,2.9389,2.9423,2.9441,2.9516,2.9542,2.9636,2.9646,2.9708,2.9828,2.9877,2.9917,3.0017,3.0021,3.0039,3.0077,3.0131,3.0141,3.015,3.0184,3.0196,3.0047,3.0047,3.0047,0,2.9164,2.927,2.9304,2.9379,2.9424,2.9439,2.9515,2.9561,2.9652,2.9682,2.9668,2.9818,2.9866,2.9976,3.0,3.0033,3.0054,3.0029,3.0137,3.0146,3.0155,3.0188,3.0201,3.0049,3.0049,3.0048,3.0048,0,2.9293,2.9367,2.9419,2.9507,2.9558,2.9633,2.9677,2.9725,2.974,2.9775,2.9869,2.9928,3.0007,3.0035,3.0051,3.0147,3.0137,3.0129,3.0102,3.0168,3.02,3.0213,3.0051,3.005,3.005,3.0049,0,0,2.9378,2.9485,2.9503,2.9543,2.9625,2.9682,2.9757,2.9836,2.9875,2.9938,3.0001,3.0102,3.0095,3.0141,3.0162,3.021,3.0283,3.0196,3.0198,3.0209,3.0391,3.0395,3.041,3.0287,3.029,3.0292,3.0385,0,2.9468,2.9603,2.9636,2.9751,2.9818,2.9834,2.9899,2.9956,2.999,3.0052,3.009,3.0161,3.0147,3.0175,3.0223,3.0264,3.032,3.0258,3.0345,3.0347,3.0325,3.0427,3.0432,3.0517,3.0398,3.04,3.0401,0,2.9591,2.9657,2.9778,2.9851,2.9881,2.9939,3.0013,3.0072,3.0137,3.0158,3.0209,3.0226,3.0304,3.0273,3.038,3.0337,3.0375,3.04,3.0405,3.0413,3.0377,3.0436,3.0545,3.0557,3.0421,3.042,3.0418,0,2.9639,2.9758,2.9846,2.988,2.9967,3.0007,3.0045,3.0108,3.0152,3.0217,3.0246,3.0319,3.0358,3.0413,3.0449,3.0424,3.0552,3.0525,3.0571,3.057,3.0597,3.0594,3.0712,3.0623,3.0623,3.0623,3.0622,0,2.9736,2.9809,2.9869,2.9923,3.0005,3.0042,3.0122,3.016,3.0215,3.0276,3.0294,3.0351,3.0395,3.0457,3.0485,3.0569,3.0587,3.0606,3.0612,3.0603,3.0601,3.0627,3.0622,3.0626,3.0625,3.0625,3.0624,0,2.9803,2.9846,2.9943,3.0017,3.0038,3.0095,3.0158,3.0211,3.0246,3.0323,3.0343,3.0398,3.0472,3.0513,3.0606,3.0625,3.0718,3.0722,3.0696,3.0698,3.0742,3.0737,3.0879,3.0899,3.0798,3.0799,3.08,0,2.9861,2.9918,2.9999,3.0041,3.008,3.0148,3.0193,3.0232,3.0278,3.0356,3.0398,3.0474,3.0536,3.0654,3.0701,3.0773,3.0778,3.0823,3.0788,3.0777,3.0777,3.0772,3.0777,3.0828,3.0829,3.083,3.083,0,2.9959,2.9977,3.0043,3.0116,3.017,3.0229,3.0288,3.0321,3.0369,3.042,3.0496,3.0545,3.064,3.0714,3.0789,3.0827,3.0836,3.0841,3.0855,3.0846,3.0828,3.0837,3.0711,3.0837,3.0837,3.0836,3.0836,3.0835,3.0022,3.0073,3.0138,3.021,3.0258,3.0312,3.0365,3.0407,3.0471,3.0552,3.057,3.065,3.0713,3.0814,3.0855,3.0917,3.0909,3.0929,3.0935,3.0939,3.094,3.082,3.0931,3.0931,3.0931,3.0931,3.0931,0,3.012,3.0162,3.0228,3.031,3.0366,3.0371,3.0436,3.0482,3.0553,3.061,3.0671,3.0758,3.083,3.0884,3.0957,3.0997,3.1003,3.1015,3.1011,3.102,3.0944,3.0924,3.1008,3.1008,3.1008,3.1008,3.1008,3.1008,3.0177,3.0263,3.0289,3.0398,3.044,3.0519,3.0556,3.0605,3.0651,3.0748,3.0808,3.0843,3.0898,3.0976,3.1042,3.1055,3.1081,3.1092,3.1106,3.1034,3.1025,3.1017,3.0998,3.1097,3.1098,3.1177,3.1177,3.1178]},{"header":{"parameterUnit":"m.s-1","parameterCategory":1,"la1":30.2991,"la2":30.254,"lo1":-89.0895,"lo2":-89.0444,"dy":0.0017,"dx":0.0017,"nx":28,"ny":28,"refTime":"2024-05-26T09:00:00:Z","depth":0,"parameterNumber":3,"parameterNumberName":"V-component_of_WINDS"},"data":[0,0,0,0,0,0,0,0,0,0,0,0,0,0,0,0,0,0,0,0,0,0,0,0,0,0,0,0,0,0,0,0,0,0,0,0,0,0,0,0,0,0,0,0,0,0,0,0,0,0,0,0,0,0,0,0,0,0,4.0073,4.0074,0,4.0236,4.0238,4.024,4.0251,4.0249,4.0247,4.0245,4.0408,4.0414,4.042,0,0,0,0,0,0,0,0,0,0,0,0,0,3.9764,3.9769,4.0073,4.0075,4.0077,4.0236,4.0238,4.0241,4.0251,4.0249,4.0246,4.0244,4.0406,4.0413,4.042,0,0,0,0,0,0,0,0,0,0,0,0,0,3.9909,3.9771,4.0072,4.0101,4.0105,4.0236,4.0238,4.0241,4.0251,4.0249,4.0246,4.0243,4.0404,4.0412,4.0421,4.0532,0,0,4.0449,4.0453,0,0,0,0,0,0,0,0,3.9901,3.9921,4.0095,4.0099,4.0104,4.022,4.0189,4.0339,4.0252,4.0196,4.0245,4.0242,4.0347,4.0361,4.0398,4.054,4.0547,4.045,4.0455,4.0459,4.0462,0,0,0,0,0,0,0,3.9891,3.9914,4.0137,4.0097,4.0103,4.0104,4.0122,4.0218,4.0285,4.0201,4.0202,4.0221,4.0349,4.0389,4.0401,4.0549,4.045,4.0458,4.0463,4.0467,4.079,4.0793,0,0,0,0,0,0,3.9876,3.9905,4.0132,4.0142,3.9994,4.0112,4.0132,4.0186,4.0284,4.0296,4.0223,4.0221,4.0375,4.0391,4.0407,4.0544,4.0459,4.0468,4.0473,4.0787,4.0791,4.0794,0,0,0,0,0,0,3.9869,3.9896,4.0125,4.0024,4.0053,4.012,4.0181,4.0191,4.023,4.0301,4.0313,4.0252,4.0373,4.0394,4.0501,4.0549,4.0472,4.048,4.0783,4.0788,4.0792,4.0817,0,0,0,0,0,0,3.9861,3.9894,3.9938,4.0025,4.0059,4.0219,4.0184,4.0196,4.0246,4.0245,4.0331,4.0342,4.0373,4.0488,4.051,4.056,4.0487,4.0779,4.0785,4.0791,4.0812,4.0822,4.083,0,0,0,0,0,3.985,3.9937,3.994,3.9968,4.0116,4.0221,4.024,4.0275,4.025,4.0294,4.034,4.034,4.054,4.0499,4.0524,4.0578,4.0776,4.0784,4.0791,4.0808,4.082,4.083,0,0,0,0,0,0,3.9853,3.9949,3.9954,4.0073,4.0139,4.0223,4.028,4.0287,4.036,4.0355,4.0393,4.0413,4.0518,4.0558,4.051,4.069,4.0655,4.0668,4.066,4.0672,4.0681,4.0669,4.0495,0,0,0,0,0,3.9867,3.9947,4.0026,4.0124,4.0157,4.0213,4.026,4.0281,4.035,4.0378,4.0431,4.0497,4.0575,4.0626,4.0701,4.0818,4.0836,4.0867,4.0876,4.0883,4.0893,4.0957,4.0972,4.0817,4.0817,4.0817,0,0,3.9898,3.9961,4.0009,4.0126,4.018,4.0259,4.0236,4.0321,4.0381,4.039,4.0495,4.0536,4.0612,4.0724,4.0776,4.0761,4.094,4.0892,4.0897,4.0904,4.0966,4.0981,4.0994,4.0822,4.0821,4.0821,0,0,3.9996,4.0052,4.0139,4.0193,4.0276,4.0312,4.0333,4.0416,4.0444,4.0551,4.0559,4.0629,4.0762,4.0816,4.0861,4.0978,4.098,4.1001,4.1049,4.111,4.1123,4.1134,4.1175,4.119,4.1011,4.1011,4.1011,0,4.0024,4.0146,4.0182,4.0268,4.0319,4.0333,4.042,4.0471,4.0573,4.0607,4.0588,4.0756,4.0808,4.0933,4.0961,4.0997,4.1021,4.0992,4.1118,4.113,4.114,4.118,4.1196,4.1013,4.1013,4.1013,4.1013,0,4.0176,4.026,4.0321,4.0421,4.0478,4.0564,4.0612,4.0665,4.0681,4.0718,4.0825,4.0888,4.0977,4.1007,4.1023,4.1134,4.1122,4.1111,4.1077,4.1157,4.1195,4.121,4.1016,4.1015,4.1015,4.1014,0,0,4.0281,4.04,4.0421,4.0466,4.0558,4.0623,4.0709,4.0797,4.0842,4.0911,4.0983,4.1096,4.1085,4.1136,4.1157,4.1212,4.13,4.1193,4.1196,4.1211,4.1426,4.1434,4.1452,4.1302,4.1305,4.1307,4.1419,0,4.0388,4.0544,4.0579,4.0712,4.079,4.0803,4.0878,4.0941,4.0978,4.1048,4.1088,4.1168,4.1148,4.1179,4.1233,4.1278,4.1343,4.127,4.1368,4.1371,4.1349,4.1472,4.1481,4.1584,4.1435,4.1437,4.1439,0,4.0535,4.061,4.0751,4.0832,4.0866,4.0933,4.1016,4.1083,4.1154,4.1177,4.1234,4.1249,4.1337,4.1299,4.142,4.1369,4.1411,4.1439,4.1443,4.1454,4.141,4.1486,4.1618,4.1634,4.1463,4.1461,4.1459,0,4.0597,4.0733,4.0835,4.0873,4.097,4.1017,4.1059,4.1127,4.1178,4.1249,4.1282,4.1363,4.1407,4.1468,4.1504,4.1473,4.1622,4.1587,4.1643,4.1642,4.1674,4.1672,4.1815,4.1701,4.17,4.17,4.17,0,4.0714,4.08,4.0864,4.0927,4.1023,4.1061,4.1155,4.1196,4.1257,4.1327,4.1342,4.1407,4.1451,4.1521,4.155,4.1646,4.1665,4.1685,4.1692,4.1684,4.1682,4.1713,4.1707,4.1704,4.1703,4.1702,4.1702,0,4.0801,4.0847,4.0959,4.1042,4.1065,4.1132,4.1202,4.1262,4.1299,4.1387,4.141,4.1468,4.1552,4.1594,4.1697,4.1716,4.1824,4.1826,4.1801,4.1804,4.1858,4.1852,4.2026,4.2051,4.1919,4.192,4.1921,0,4.0872,4.0939,4.1029,4.1078,4.1122,4.12,4.1252,4.1291,4.1344,4.143,4.148,4.1564,4.1634,4.1767,4.1817,4.1896,4.19,4.1956,4.1912,4.1902,4.1901,4.1897,4.1904,4.1964,4.1965,4.1966,4.1967,0,4.0995,4.1015,4.109,4.1173,4.1235,4.1302,4.1368,4.1407,4.1456,4.1515,4.1602,4.1656,4.1762,4.1846,4.1929,4.197,4.1976,4.198,4.1997,4.199,4.1973,4.1983,4.1823,4.1976,4.1975,4.1974,4.1974,4.1973,4.1076,4.1136,4.1209,4.1292,4.1346,4.1407,4.1469,4.1514,4.1587,4.1678,4.1696,4.1788,4.1856,4.1968,4.2012,4.2082,4.207,4.2095,4.2102,4.2107,4.211,4.1961,4.2097,4.2097,4.2097,4.2097,4.2097,0,4.12,4.1247,4.1324,4.1416,4.1481,4.1483,4.1556,4.1609,4.1691,4.1754,4.1823,4.1922,4.2003,4.206,4.2141,4.2187,4.2192,4.2207,4.2205,4.2214,4.2116,4.2093,4.2202,4.2202,4.2202,4.2202,4.2202,4.2202,4.1272,4.1373,4.1401,4.1529,4.1575,4.1667,4.1708,4.1764,4.1815,4.1926,4.1994,4.203,4.2091,4.2177,4.2251,4.2265,4.2295,4.231,4.2324,4.2232,4.2221,4.221,4.2189,4.2316,4.2316,4.2416,4.2417,4.2418]}]]